Time,TemperatureF,DewpointF,PressureIn,WindDirection,WindDirectionDegrees,WindSpeedMPH,WindSpeedGustMPH,Humidity,HourlyPrecipIn,Conditions,Clouds,dailyrainin,SoftwareType,DateUTC
2013-06-07 00:03:00,56.0,51.0,30.00,NNW,341,0.0,0.0,84,0.00,,,0.00,,2013-06-07 05:03:00,
2013-06-07 00:12:00,56.0,51.0,30.00,NNW,341,0.0,0.0,84,0.00,,,0.00,,2013-06-07 05:12:00,
2013-06-07 00:22:00,56.0,52.0,30.00,NNW,341,0.0,0.0,86,0.00,,,0.00,,2013-06-07 05:22:00,
2013-06-07 00:32:00,56.0,52.0,30.00,NNW,341,0.0,0.0,86,0.00,,,0.00,,2013-06-07 05:32:00,
2013-06-07 00:42:00,56.0,52.0,30.00,NNW,341,0.0,0.0,86,0.00,,,0.00,,2013-06-07 05:42:00,
2013-06-07 00:52:00,55.0,51.0,30.00,NNW,341,0.0,0.0,86,0.00,,,0.00,,2013-06-07 05:52:00,
2013-06-07 01:02:00,55.0,51.0,30.00,NNW,341,0.0,0.0,87,0.00,,,0.00,,2013-06-07 06:02:00,
2013-06-07 01:12:00,55.0,51.0,30.00,NNW,341,0.0,0.0,87,0.00,,,0.00,,2013-06-07 06:12:00,
2013-06-07 01:22:00,54.0,50.0,30.01,NNW,341,0.0,0.0,87,0.00,,,0.00,,2013-06-07 06:22:00,
2013-06-07 01:32:00,54.0,51.0,30.00,NNW,341,0.0,0.0,88,0.00,,,0.00,,2013-06-07 06:32:00,
2013-06-07 01:42:00,54.0,51.0,30.00,NNW,341,0.0,0.0,88,0.00,,,0.00,,2013-06-07 06:42:00,
2013-06-07 01:52:00,54.0,51.0,30.00,NNW,341,0.0,0.0,88,0.00,,,0.00,,2013-06-07 06:52:00,
2013-06-07 02:02:00,54.0,51.0,30.00,NNW,341,0.0,0.0,89,0.00,,,0.00,,2013-06-07 07:02:00,
2013-06-07 02:12:00,54.0,51.0,30.00,NNW,341,0.0,0.0,89,0.00,,,0.00,,2013-06-07 07:12:00,
2013-06-07 02:22:00,53.0,50.0,30.00,NNW,341,0.0,0.0,90,0.00,,,0.00,,2013-06-07 07:22:00,
2013-06-07 02:32:00,53.0,50.0,30.00,NNW,341,0.0,0.0,90,0.00,,,0.00,,2013-06-07 07:32:00,
2013-06-07 02:42:00,53.0,50.0,30.00,NNW,341,0.0,0.0,90,0.00,,,0.00,,2013-06-07 07:42:00,
2013-06-07 02:52:00,53.0,50.0,30.00,NNW,341,0.0,0.0,90,0.00,,,0.00,,2013-06-07 07:52:00,
2013-06-07 03:02:00,52.0,49.0,30.00,NNW,341,0.0,0.0,91,0.00,,,0.00,,2013-06-07 08:02:00,
2013-06-07 03:12:00,52.0,49.0,30.00,NNW,341,0.0,0.0,91,0.00,,,0.00,,2013-06-07 08:12:00,
2013-06-07 03:22:00,52.0,49.0,30.00,NNW,341,0.0,0.0,91,0.00,,,0.00,,2013-06-07 08:22:00,
2013-06-07 03:32:00,52.0,49.0,29.99,NNW,341,0.0,0.0,91,0.00,,,0.00,,2013-06-07 08:32:00,
2013-06-07 03:42:00,52.0,49.0,29.99,NNW,341,0.0,0.0,91,0.00,,,0.00,,2013-06-07 08:42:00,
2013-06-07 03:52:00,52.0,50.0,30.00,NNW,341,0.0,0.0,92,0.00,,,0.00,,2013-06-07 08:52:00,
2013-06-07 04:02:00,52.0,50.0,30.00,NNW,341,0.0,0.0,92,0.00,,,0.00,,2013-06-07 09:02:00,
2013-06-07 04:12:00,52.0,50.0,30.00,NNW,341,0.0,0.0,92,0.00,,,0.00,,2013-06-07 09:12:00,
2013-06-07 04:22:00,53.0,51.0,30.00,NNW,341,0.0,0.0,93,0.00,,,0.00,,2013-06-07 09:22:00,
2013-06-07 04:32:00,53.0,51.0,30.00,NNW,341,0.0,1.0,93,0.00,,,0.00,,2013-06-07 09:32:00,
2013-06-07 04:43:00,53.0,51.0,30.00,NNW,341,0.0,1.0,93,0.00,,,0.00,,2013-06-07 09:43:00,
2013-06-07 04:53:00,52.0,50.0,30.00,NNW,341,0.0,1.0,92,0.00,,,0.00,,2013-06-07 09:53:00,
2013-06-07 05:02:00,52.0,50.0,30.01,NNW,341,0.0,0.0,93,0.00,,,0.00,,2013-06-07 10:02:00,
2013-06-07 05:12:00,52.0,50.0,30.01,NNW,341,0.0,0.0,93,0.00,,,0.00,,2013-06-07 10:12:00,
2013-06-07 05:23:00,52.0,50.0,30.01,NNW,341,0.0,0.0,93,0.00,,,0.00,,2013-06-07 10:23:00,
2013-06-07 05:32:00,52.0,50.0,30.02,NNW,341,0.0,0.0,93,0.00,,,0.00,,2013-06-07 10:32:00,
2013-06-07 05:42:00,52.0,50.0,30.02,NNW,341,0.0,0.0,93,0.00,,,0.00,,2013-06-07 10:42:00,
2013-06-07 05:52:00,52.0,50.0,30.02,NNW,341,0.0,0.0,93,0.00,,,0.00,,2013-06-07 10:52:00,
2013-06-07 06:02:00,51.0,49.0,30.02,NNW,341,0.0,0.0,93,0.00,,,0.00,,2013-06-07 11:02:00,
2013-06-07 06:12:00,51.0,49.0,30.02,NNW,341,0.0,0.0,93,0.00,,,0.00,,2013-06-07 11:12:00,
2013-06-07 06:22:00,51.0,49.0,30.02,ESE,106,0.0,1.0,93,0.00,,,0.00,,2013-06-07 11:22:00,
2013-06-07 06:32:00,51.0,49.0,30.02,ESE,106,0.0,0.0,93,0.00,,,0.00,,2013-06-07 11:32:00,
2013-06-07 06:42:00,51.0,49.0,30.02,ESE,106,0.0,0.0,93,0.00,,,0.00,,2013-06-07 11:42:00,
2013-06-07 06:52:00,51.0,49.0,30.02,ESE,106,0.0,0.0,93,0.00,,,0.00,,2013-06-07 11:52:00,
2013-06-07 07:02:00,51.0,49.0,30.02,ESE,106,0.0,0.0,93,0.00,,,0.00,,2013-06-07 12:02:00,
2013-06-07 07:12:00,51.0,49.0,30.02,ESE,106,0.0,0.0,93,0.00,,,0.00,,2013-06-07 12:12:00,
2013-06-07 07:22:00,51.0,49.0,30.02,ESE,106,0.0,0.0,94,0.00,,,0.00,,2013-06-07 12:22:00,
2013-06-07 07:32:00,52.0,50.0,30.03,ESE,106,0.0,0.0,94,0.00,,,0.00,,2013-06-07 12:32:00,
2013-06-07 07:42:00,52.0,50.0,30.03,ESE,106,0.0,0.0,94,0.00,,,0.00,,2013-06-07 12:42:00,
2013-06-07 07:52:00,53.0,51.0,30.03,ESE,106,0.0,0.0,94,0.00,,,0.00,,2013-06-07 12:52:00,
2013-06-07 08:02:00,54.0,52.0,30.03,NW,321,1.0,6.0,94,0.00,,,0.00,,2013-06-07 13:02:00,
2013-06-07 08:12:00,54.0,52.0,30.03,NW,321,1.0,6.0,94,0.00,,,0.00,,2013-06-07 13:12:00,
2013-06-07 08:22:00,55.0,53.0,30.04,NNW,333,0.0,6.0,94,0.00,,,0.00,,2013-06-07 13:22:00,
2013-06-07 08:32:00,55.0,53.0,30.05,NNW,333,0.0,4.0,93,0.00,,,0.00,,2013-06-07 13:32:00,
2013-06-07 08:42:00,55.0,53.0,30.05,NNW,333,0.0,4.0,93,0.00,,,0.00,,2013-06-07 13:42:00,
2013-06-07 08:52:00,56.0,54.0,30.04,NNW,333,0.0,1.0,92,0.00,,,0.00,,2013-06-07 13:52:00,
2013-06-07 09:02:00,57.0,54.0,30.05,NE,45,0.0,3.0,90,0.00,,,0.00,,2013-06-07 14:02:00,
2013-06-07 09:12:00,57.0,54.0,30.05,NE,45,0.0,3.0,90,0.00,,,0.00,,2013-06-07 14:12:00,
2013-06-07 09:22:00,59.0,55.0,30.05,NE,45,0.0,1.0,86,0.00,,,0.00,,2013-06-07 14:22:00,
2013-06-07 09:32:00,61.0,55.0,30.05,ENE,63,0.0,2.0,80,0.00,,,0.00,,2013-06-07 14:32:00,
2013-06-07 09:42:00,61.0,55.0,30.05,ENE,63,0.0,2.0,80,0.00,,,0.00,,2013-06-07 14:42:00,
2013-06-07 09:52:00,62.0,55.0,30.05,NE,49,0.0,4.0,78,0.00,,,0.00,,2013-06-07 14:52:00,
2013-06-07 10:02:00,64.0,55.0,30.05,NE,49,0.0,2.0,72,0.00,,,0.00,,2013-06-07 15:02:00,
2013-06-07 10:12:00,64.0,55.0,30.05,NE,49,0.0,2.0,72,0.00,,,0.00,,2013-06-07 15:12:00,
2013-06-07 10:22:00,65.0,55.0,30.05,NE,36,0.0,4.0,70,0.00,,,0.00,,2013-06-07 15:22:00,
2013-06-07 10:33:00,66.0,55.0,30.05,WNW,299,1.0,7.0,68,0.00,,,0.00,,2013-06-07 15:33:00,
2013-06-07 10:43:00,66.0,55.0,30.05,WNW,299,1.0,7.0,68,0.00,,,0.00,,2013-06-07 15:43:00,
2013-06-07 10:53:00,67.0,55.0,30.05,NNW,337,1.0,8.0,66,0.00,,,0.00,,2013-06-07 15:53:00,
2013-06-07 11:03:00,67.0,54.0,30.05,NNW,337,1.0,8.0,64,0.00,,,0.00,,2013-06-07 16:03:00,
2013-06-07 11:13:00,67.0,54.0,30.05,NNW,337,1.0,8.0,64,0.00,,,0.00,,2013-06-07 16:13:00,
2013-06-07 11:22:00,68.0,55.0,30.04,North,355,0.0,7.0,64,0.00,,,0.00,,2013-06-07 16:22:00,
2013-06-07 11:33:00,68.0,54.0,30.04,NNW,348,1.0,8.0,60,0.00,,,0.00,,2013-06-07 16:33:00,
2013-06-07 11:43:00,68.0,54.0,30.04,NNW,348,1.0,8.0,60,0.00,,,0.00,,2013-06-07 16:43:00,
2013-06-07 11:52:00,68.0,53.0,30.04,NNE,14,2.0,8.0,59,0.00,,,0.00,,2013-06-07 16:52:00,
2013-06-07 12:02:00,68.0,52.0,30.05,North,5,2.0,7.0,57,0.00,,,0.00,,2013-06-07 17:02:00,
2013-06-07 12:13:00,68.0,52.0,30.05,North,5,2.0,7.0,57,0.00,,,0.00,,2013-06-07 17:13:00,
2013-06-07 12:22:00,69.0,53.0,30.04,NW,311,1.0,7.0,57,0.00,,,0.00,,2013-06-07 17:22:00,
2013-06-07 12:32:00,70.0,53.0,30.04,NNE,22,0.0,8.0,54,0.00,,,0.00,,2013-06-07 17:32:00,
2013-06-07 12:42:00,70.0,53.0,30.04,NNE,22,0.0,8.0,54,0.00,,,0.00,,2013-06-07 17:42:00,
2013-06-07 12:52:00,71.0,52.0,30.04,NNW,334,0.0,8.0,52,0.00,,,0.00,,2013-06-07 17:52:00,
2013-06-07 13:06:00,73.0,52.0,30.03,NNW,329,3.0,9.0,47,0.00,,,0.00,,2013-06-07 18:06:00,
2013-06-07 13:18:00,73.0,52.0,30.03,NNW,329,3.0,9.0,47,0.00,,,0.00,,2013-06-07 18:18:00,
2013-06-07 13:35:00,71.0,53.0,30.02,East,83,0.0,7.0,53,0.00,,,0.00,,2013-06-07 18:35:00,
2013-06-07 13:44:00,71.0,53.0,30.02,East,83,0.0,7.0,53,0.00,,,0.00,,2013-06-07 18:44:00,
2013-06-07 13:56:00,73.0,50.0,30.02,North,355,1.0,9.0,45,0.00,,,0.00,,2013-06-07 18:56:00,
2013-06-07 14:28:00,71.0,50.0,30.01,NNE,23,3.0,11.0,47,0.00,,,0.00,,2013-06-07 19:28:00,
2013-06-07 14:35:00,71.0,52.0,30.01,North,5,1.0,10.0,51,0.00,,,0.00,,2013-06-07 19:35:00,
2013-06-07 14:47:00,71.0,52.0,30.01,North,5,1.0,10.0,51,0.00,,,0.00,,2013-06-07 19:47:00,
2013-06-07 14:55:00,72.0,52.0,30.01,WNW,294,0.0,4.0,50,0.00,,,0.00,,2013-06-07 19:55:00,
2013-06-07 15:07:00,73.0,52.0,30.00,North,355,2.0,9.0,48,0.00,,,0.00,,2013-06-07 20:07:00,
2013-06-07 15:24:00,73.0,53.0,30.00,NNW,340,2.0,10.0,49,0.00,,,0.00,,2013-06-07 20:24:00,
2013-06-07 15:38:00,73.0,53.0,30.00,NNW,339,0.0,5.0,49,0.00,,,0.00,,2013-06-07 20:38:00,
2013-06-07 15:46:00,73.0,53.0,30.00,NNW,339,0.0,5.0,49,0.00,,,0.00,,2013-06-07 20:46:00,
2013-06-07 15:55:00,74.0,50.0,29.99,NE,36,3.0,12.0,43,0.00,,,0.00,,2013-06-07 20:55:00,
2013-06-07 16:05:00,73.0,51.0,29.99,NNW,338,2.0,11.0,46,0.00,,,0.00,,2013-06-07 21:05:00,
2013-06-07 16:18:00,73.0,51.0,29.99,NNW,338,2.0,11.0,46,0.00,,,0.00,,2013-06-07 21:18:00,
2013-06-07 16:38:00,72.0,51.0,29.99,North,355,1.0,7.0,48,0.00,,,0.00,,2013-06-07 21:38:00,
2013-06-07 16:45:00,72.0,51.0,29.99,North,355,1.0,7.0,48,0.00,,,0.00,,2013-06-07 21:45:00,
2013-06-07 16:55:00,72.0,52.0,29.98,North,11,0.0,5.0,49,0.00,,,0.00,,2013-06-07 21:55:00,
2013-06-07 17:07:00,74.0,51.0,29.98,North,355,0.0,5.0,44,0.00,,,0.00,,2013-06-07 22:07:00,
2013-06-07 17:21:00,74.0,51.0,29.98,North,355,0.0,5.0,44,0.00,,,0.00,,2013-06-07 22:21:00,
2013-06-07 17:27:00,75.0,53.0,29.98,WNW,286,0.0,7.0,47,0.00,,,0.00,,2013-06-07 22:27:00,
2013-06-07 17:37:00,75.0,52.0,29.98,NNW,348,0.0,5.0,44,0.00,,,0.00,,2013-06-07 22:37:00,
2013-06-07 17:46:00,75.0,52.0,29.98,NNW,348,0.0,5.0,44,0.00,,,0.00,,2013-06-07 22:46:00,
2013-06-07 17:55:00,73.0,51.0,29.97,NNW,348,1.0,3.0,46,0.00,,,0.00,,2013-06-07 22:55:00,
2013-06-07 18:18:00,74.0,51.0,29.97,NNW,348,0.0,6.0,45,0.00,,,0.00,,2013-06-07 23:18:00,
2013-06-07 18:28:00,73.0,51.0,29.97,NNE,14,0.0,4.0,46,0.00,,,0.00,,2013-06-07 23:28:00,
2013-06-07 18:36:00,72.0,51.0,29.96,NNE,13,0.0,1.0,47,0.00,,,0.00,,2013-06-07 23:36:00,
2013-06-07 18:49:00,72.0,51.0,29.96,NNE,13,0.0,1.0,47,0.00,,,0.00,,2013-06-07 23:49:00,
2013-06-07 18:55:00,72.0,51.0,29.96,NNE,13,0.0,3.0,47,0.00,,,0.00,,2013-06-07 23:55:00,
2013-06-07 19:10:00,71.0,52.0,29.96,NNE,13,0.0,3.0,52,0.00,,,0.00,,2013-06-08 00:10:00,
2013-06-07 19:17:00,70.0,50.0,29.95,NNE,13,0.0,4.0,50,0.00,,,0.00,,2013-06-08 00:17:00,
2013-06-07 19:26:00,70.0,50.0,29.95,NNE,13,0.0,4.0,50,0.00,,,0.00,,2013-06-08 00:26:00,
2013-06-07 19:34:00,69.0,50.0,29.96,NNW,342,1.0,6.0,51,0.00,,,0.00,,2013-06-08 00:34:00,
2013-06-07 20:06:00,68.0,50.0,29.95,NNW,346,0.0,5.0,53,0.00,,,0.00,,2013-06-08 01:06:00,
2013-06-07 20:18:00,68.0,50.0,29.95,NNW,346,0.0,5.0,53,0.00,,,0.00,,2013-06-08 01:18:00,
2013-06-07 20:26:00,68.0,51.0,29.95,NNW,347,0.0,3.0,54,0.00,,,0.00,,2013-06-08 01:26:00,
2013-06-07 20:38:00,67.0,50.0,29.96,NNW,347,0.0,1.0,55,0.00,,,0.00,,2013-06-08 01:38:00,
2013-06-07 20:44:00,67.0,50.0,29.96,NNW,347,0.0,1.0,55,0.00,,,0.00,,2013-06-08 01:44:00,
2013-06-07 20:55:00,66.0,50.0,29.96,NNW,347,0.0,0.0,57,0.00,,,0.00,,2013-06-08 01:55:00,
2013-06-07 21:08:00,65.0,50.0,29.96,NNW,347,0.0,0.0,59,0.00,,,0.00,,2013-06-08 02:08:00,
2013-06-07 21:15:00,65.0,50.0,29.96,NNW,347,0.0,0.0,59,0.00,,,0.00,,2013-06-08 02:15:00,
2013-06-07 21:28:00,64.0,50.0,29.97,NNW,346,0.0,0.0,61,0.00,,,0.00,,2013-06-08 02:28:00,
2013-06-07 21:34:00,63.0,51.0,29.96,NNW,346,0.0,0.0,64,0.00,,,0.00,,2013-06-08 02:34:00,
2013-06-07 21:47:00,63.0,51.0,29.96,NNW,346,0.0,0.0,64,0.00,,,0.00,,2013-06-08 02:47:00,
2013-06-07 21:54:00,62.0,51.0,29.96,NNW,346,0.0,0.0,67,0.00,,,0.00,,2013-06-08 02:54:00,
2013-06-07 22:08:00,62.0,51.0,29.96,NNW,347,0.0,1.0,66,0.00,,,0.00,,2013-06-08 03:08:00,
2013-06-07 22:16:00,62.0,51.0,29.96,NNW,347,0.0,1.0,66,0.00,,,0.00,,2013-06-08 03:16:00,
2013-06-07 22:25:00,62.0,51.0,29.97,NNW,347,0.0,0.0,66,0.00,,,0.00,,2013-06-08 03:25:00,
2013-06-07 22:36:00,61.0,50.0,29.97,NNW,347,0.0,0.0,67,0.00,,,0.00,,2013-06-08 03:36:00,
2013-06-07 22:51:00,61.0,50.0,29.97,NNW,347,0.0,0.0,67,0.00,,,0.00,,2013-06-08 03:51:00,
2013-06-07 23:03:00,60.0,51.0,29.98,NNW,346,0.0,0.0,71,0.00,,,0.00,,2013-06-08 04:03:00,
2013-06-07 23:12:00,60.0,51.0,29.98,NNW,346,0.0,0.0,71,0.00,,,0.00,,2013-06-08 04:12:00,
2013-06-07 23:23:00,60.0,51.0,29.98,NNW,347,0.0,0.0,73,0.00,,,0.00,,2013-06-08 04:23:00,
2013-06-07 23:33:00,59.0,51.0,29.99,NNW,346,0.0,0.0,74,0.00,,,0.00,,2013-06-08 04:33:00,
2013-06-07 23:42:00,59.0,51.0,29.99,NNW,346,0.0,0.0,74,0.00,,,0.00,,2013-06-08 04:42:00,
2013-06-07 23:53:00,58.0,50.0,29.99,NNW,347,0.0,0.0,75,0.00,,,0.00,,2013-06-08 04:53:00,